sat.trackr.live / text

‹ back to catalog

STARLINK-32232

NORAD 60431 · 2024-144G

PAYLOAD ACTIVE UNKNOWN

§ Identity

Operator
Country
US
Launch date
2024-08-12
Launch site
AFETR
Launch vehicle
Mass (kg)
RCS (m²)

Purposes: comms

External: N2YO · Heavens-Above · Gunter

§ Orbital elements

Epoch: 2026-09-21T19:21:17.977248Z

Period
93.85 min
Inclination
53.1622°
Eccentricity
0.0001322
Mean motion
15.34387953 rev/d
Perigee alt
461.8 km
Apogee alt
463.6 km
Semi-major
6,840.9 km
B*
-1.6344e-5
RAAN
23.4854°
Arg perigee
82.8358°
Mean anomaly
277.2795°
Rev number
11,937

§ Raw data

STARLINK-322321 60431U 24144G   26264.80645807 -.00000928  00000+0 -16344-4 0  99992 60431  53.1622  23.4854 0001322  82.8358 277.2795 15.34387953119371

JSON: /api/v1/satellites/60431 · /tle

For live sub-satellite position, see the globe view (requires WebGL).

§ Visibility from observer

Set your observer location to see the next 7 days of passes ≥ 10°. The values pass through the URL so the page stays shareable.

No JS? Fill the form by hand. The geolocation button needs JavaScript.